Myrtle Beach, SC

6:40 PM EDT on August 16, 2017 (GMT -0400)
Myrtle Beach International

Weather History for KMYR - January, 2013

Change the Weather History Date:

Friday, January 25, 2013

  Actual Average Record
Temperature  
Mean Temperature 32 °F -  
Max Temperature 39 °F 53 °F 80 °F (1949)
Min Temperature 24 °F 34 °F 15 °F (2003)
Degree Days  
Heating Degree Days 34    
Moisture  
Dew Point 16 °F    
Average Humidity 55    
Maximum Humidity 75    
Minimum Humidity 39    
Precipitation  
Precipitation 0.00 in - - ()
Sea Level Pressure  
Sea Level Pressure 30.39 in    
Wind  
Wind Speed 11 mph (NNE)    
Max Wind Speed 13 mph    
Max Gust Speed 17 mph    
Visibility 10 miles    
Events      
Averages and records for this station are not official NWS values.
T = Trace of Precipitation, MM = Missing Value Source: NWS Daily Summary

Daily Weather History Graph

Daily Weather History Graph

Search for Another Location

Airport or City:

Trip Planner

Search our weather history database for the weather conditions in past years. The results will help you decide how hot, cold, wet, or windy it might be!

Date:

Astronomy

Jan. 25, 2013 Rise Set
Actual Time 7:16 AM EST 5:40 PM EST
Civil Twilight 6:49 AM EST 6:06 PM EST
Nautical Twilight 6:19 AM EST 6:36 PM EST
Astronomical Twilight 5:50 AM EST 7:06 PM EST
Moon 4:35 PM EST (1/25) 5:54 AM EST (1/25)
Length of Visible Light 11h 16m
Length of Day
10h 23m
Waxing Gibbous, 98% of the Moon is Illuminated
Jan 25
Waxing Gibbous
Jan 26
Full
Feb 3
Last Quarter
Feb 10
New
Feb 17
First Quarter

Hourly Weather History & Observations

Time (EST) Temp. Windchill Dew Point Humidity Pressure Visibility Wind Dir Wind Speed Gust Speed Precip Events Conditions
12:15 AM 28.4 °F 18.5 °F 10.4 °F 47% 30.50 in 10.0 mi NNE 11.5 mph - N/A   Clear
12:35 AM 28.4 °F 18.0 °F 8.6 °F 43% 30.50 in 10.0 mi NNE 12.7 mph - N/A   Clear
12:55 AM 28.4 °F 19.1 °F 8.6 °F 43% 30.50 in 10.0 mi NNE 10.4 mph 17.3 mph N/A   Clear
1:15 AM 28.4 °F 18.5 °F 8.6 °F 43% 30.50 in 10.0 mi NNE 11.5 mph - N/A   Clear
1:35 AM 28.4 °F 19.1 °F 8.6 °F 43% 30.50 in 10.0 mi NNE 10.4 mph - N/A   Clear
1:55 AM 26.6 °F 16.2 °F 8.6 °F 47% 30.50 in 10.0 mi NNE 11.5 mph - N/A   Clear
2:15 AM 26.6 °F 16.2 °F 10.4 °F 51% 30.51 in 10.0 mi NNE 11.5 mph - N/A   Clear
2:35 AM 26.6 °F 16.2 °F 8.6 °F 47% 30.50 in 10.0 mi NNE 11.5 mph - N/A   Clear
2:55 AM 26.6 °F 15.7 °F 8.6 °F 47% 30.49 in 10.0 mi NNE 12.7 mph - N/A   Clear
3:15 AM 26.6 °F 16.2 °F 8.6 °F 47% 30.49 in 10.0 mi NNE 11.5 mph - N/A   Clear
3:35 AM 26.6 °F 16.2 °F 8.6 °F 47% 30.49 in 10.0 mi NNE 11.5 mph - N/A   Clear
3:55 AM 26.6 °F 16.8 °F 8.6 °F 47% 30.50 in 10.0 mi NNE 10.4 mph - N/A   Clear
4:15 AM 26.6 °F 15.7 °F 8.6 °F 47% 30.49 in 10.0 mi NNE 12.7 mph - N/A   Clear
4:35 AM 26.6 °F 16.8 °F 8.6 °F 47% 30.50 in 10.0 mi NNE 10.4 mph - N/A   Clear
4:55 AM 26.6 °F 17.5 °F 8.6 °F 47% 30.48 in 10.0 mi NNE 9.2 mph - N/A   Clear
5:15 AM 24.8 °F 14.6 °F 8.6 °F 50% 30.47 in 10.0 mi NNE 10.4 mph - N/A   Clear
5:35 AM 24.8 °F 16.1 °F 8.6 °F 50% 30.47 in 10.0 mi NNE 8.1 mph - N/A   Clear
5:45 AM 24.8 °F 14.0 °F 8.6 °F 50% 30.47 in 10.0 mi ENE 11.5 mph - N/A   Clear
6:45 AM 24.8 °F 14.0 °F 8.6 °F 50% 30.46 in 10.0 mi NE 11.5 mph - N/A   Clear
7:45 AM 26.6 °F 16.2 °F 8.6 °F 47% 30.45 in 10.0 mi NE 11.5 mph - N/A   Clear
8:45 AM 28.4 °F 18.5 °F - N/A% 30.45 in 10.0 mi NNE 11.5 mph - N/A   Clear
9:45 AM 39.2 °F 33.6 °F 15.8 °F 39% 30.44 in 10.0 mi NE 8.1 mph - N/A   Clear
10:45 AM 37.4 °F 29.8 °F 26.6 °F 65% 30.40 in 10.0 mi ENE 11.5 mph - N/A   Clear
11:45 AM 37.4 °F 29.8 °F 28.4 °F 70% 30.37 in 10.0 mi East 11.5 mph - N/A   Overcast
12:09 PM 37.4 °F 29.8 °F 30.2 °F 75% 30.34 in 10.0 mi ENE 11.5 mph - N/A   Overcast
12:45 PM 39.2 °F 32.0 °F 32.0 °F 75% 30.32 in 10.0 mi ENE 11.5 mph - N/A   Overcast
1:21 PM 39.2 °F 32.0 °F 32.0 °F 75% 30.26 in 10.0 mi ENE 11.5 mph - N/A   Overcast
1:45 PM 39.2 °F 32.0 °F 32.0 °F 75% 30.27 in 10.0 mi ENE 11.5 mph - N/A   Overcast
2:45 PM 39.2 °F 33.6 °F 30.2 °F 70% 30.22 in 7.0 mi NNE 8.1 mph - N/A   Overcast
3:45 PM 39.2 °F 35.0 °F 28.4 °F 65% 30.18 in 7.0 mi NW 5.8 mph - N/A   Overcast
5:45 PM 39.2 °F 32.0 °F 24.8 °F 56% 30.19 in 10.0 mi NNW 11.5 mph - N/A   Overcast
6:45 PM 35.6 °F 28.6 °F 24.8 °F 65% 30.17 in 10.0 mi NNW 9.2 mph - N/A   Overcast
7:45 PM 35.6 °F 29.9 °F 23.0 °F 60% 30.17 in 10.0 mi NNW 6.9 mph - N/A   Overcast
11:15 PM 35.6 °F 31.7 °F 24.8 °F 65% 30.17 in 10.0 mi NW 4.6 mph - N/A   Overcast
11:35 PM 35.6 °F 29.9 °F 24.8 °F 65% 30.16 in 10.0 mi WNW 6.9 mph - N/A   Overcast
11:55 PM 35.6 °F 29.2 °F 23.0 °F 60% 30.16 in 10.0 mi NNW 8.1 mph - N/A   Overcast